SCP
0 0 0 0 0 0 0 0 0 0 0 0 0 0 0 0 0 0 0 0 0 0
0 0 0 0 0 0 0 0 0 0 0 0 0 0 0 0 0 0 0 0 0 0
0 0 0 0 0 0 0 0 0 0 0 0 0 0 0 0 0 0 0 0 0 0
0 0 0 0 0 0 0 0 0 0 0 0 0 0 0 0 0 0 0 0 0 0
0 0 0 0 0 0 0 0 0 0 0 0 0 0 0 0 0 0 0 0 0 0
0 0 0 0 0 0 0 0 0 0 0 0 0 0 0 0 0 0 0 0 0 0
0 0 0 0 0 0 0 0 0 0 0 0 0 0 0 0 0 0 0 0 0 0
0 0 0 0 0 0 0 0 0 0 0 0 0 0 0 0 0 0 0 0 0 0
0 0 0 0 0 0 0 0 0 0 0 0 0 0 0 0 0 0 0 0 0 0
0 0 0 0 0 0 0 0 0 0 0 0 0 0 0 0 0 0 0 0 0 0
0 0 0 0 0 0 0 0 0 0 0 0 0 0 0 0 0 0 0 0 0 0
0 0 0 0 0 0 0 0 0 0 0 0 0 0 0 0 0 0 0 0 0 0
0 0 0 0 0 0 0 0 0 0 0 0 0 0 0 0 0 0 0 0 0 0
0 0 0 0 0 0 0 0 0 0 0 0 0 0 0 0 0 0 0 0 0 0
Wind_Speed_500mb
81 78 74 69 61 54 47 40 42 43 45 52 59 65 69 71 71 68 69 68 66 73
85 80 76 68 60 52 43 41 44 44 48 54 61 64 65 66 64 64 65 69 71 75
86 80 74 66 57 47 43 43 43 47 51 54 58 58 57 58 60 64 68 71 76 80
89 81 74 64 55 47 42 42 46 49 51 51 52 52 55 57 62 67 71 71 76 84
88 81 72 63 53 45 41 44 48 47 48 47 49 52 56 62 64 70 73 74 78 85
90 82 72 62 51 44 43 44 46 44 44 46 50 54 57 64 68 71 72 74 76 82
93 81 69 58 49 44 45 45 41 40 42 48 53 56 59 64 68 71 74 73 76 79
90 78 69 56 50 48 46 40 36 37 43 49 53 54 58 65 68 71 76 78 75 72
90 78 66 59 53 48 42 35 32 38 43 48 50 51 57 65 68 72 73 77 74 73
86 76 68 60 52 45 37 32 33 38 44 47 47 49 55 65 71 70 69 72 76 77
87 76 67 58 49 41 35 32 32 37 43 45 45 50 56 67 66 70 77 79 82 85
84 76 67 56 45 37 34 30 31 36 40 45 43 48 57 60 64 74 85 84 83 86
83 70 60 49 39 36 32 28 31 36 38 44 46 48 53 50 58 77 87 94 86 87
85 72 58 45 39 35 30 29 30 34 35 38 43 46 45 41 53 69 85 97 100 92
Wind_Direction_500mb
231 232 233 237 242 249 256 266 275 282 290 296 299 303 304 302 301 299 293 290 287 287
231 229 231 235 241 247 255 265 274 283 291 295 300 302 302 302 303 298 295 293 290 288
228 228 229 232 239 245 256 267 277 285 292 297 300 302 302 304 303 298 296 292 291 288
226 224 226 230 234 242 255 268 279 286 292 298 302 303 305 307 303 300 298 296 294 291
223 222 224 227 232 242 257 268 277 285 293 300 303 307 309 307 305 302 300 300 295 293
219 219 221 225 232 243 255 266 274 285 296 302 306 306 308 307 306 304 303 301 297 297
217 217 218 222 231 244 254 264 276 291 301 304 305 308 311 310 308 307 305 303 299 298
215 213 214 219 230 241 252 263 279 296 300 302 305 309 312 310 310 309 307 304 302 297
211 210 213 219 229 239 250 264 284 294 300 301 302 308 311 314 312 309 307 309 305 299
209 209 213 219 228 237 249 266 283 293 297 298 303 308 313 314 310 309 310 312 313 310
208 208 215 221 228 237 250 266 280 291 295 298 307 309 312 311 313 318 323 318 312 304
208 209 214 220 228 237 252 266 283 291 295 299 305 308 312 320 325 325 322 316 311 308
206 211 217 220 228 240 253 268 284 291 297 302 309 312 324 327 326 324 319 320 315 310
204 208 214 221 230 240 252 269 284 290 300 303 311 322 328 327 326 321 320 315 317 315
Wind_Speed_850mb
81 78 74 69 61 54 47 40 42 43 45 52 59 65 69 71 71 68 69 68 66 73
85 80 76 68 60 52 43 41 44 44 48 54 61 64 65 66 64 64 65 69 71 75
86 80 74 66 57 47 43 43 43 47 51 54 58 58 57 58 60 64 68 71 76 80
89 81 74 64 55 47 42 42 46 49 51 51 52 52 55 57 62 67 71 71 76 84
88 81 72 63 53 45 41 44 48 47 48 47 49 52 56 62 64 70 73 74 78 85
90 82 72 62 51 44 43 44 46 44 44 46 50 54 57 64 68 71 72 74 76 82
93 81 69 58 49 44 45 45 41 40 42 48 53 56 59 64 68 71 74 73 76 79
90 78 69 56 50 48 46 40 36 37 43 49 53 54 58 65 68 71 76 78 75 72
90 78 66 59 53 48 42 35 32 38 43 48 50 51 57 65 68 72 73 77 74 73
86 76 68 60 52 45 37 32 33 38 44 47 47 49 55 65 71 70 69 72 76 77
87 76 67 58 49 41 35 32 32 37 43 45 45 50 56 67 66 70 77 79 82 85
84 76 67 56 45 37 34 30 31 36 40 45 43 48 57 60 64 74 85 84 83 86
83 70 60 49 39 36 32 28 31 36 38 44 46 48 53 50 58 77 87 94 86 87
85 72 58 45 39 35 30 29 30 34 35 38 43 46 45 41 53 69 85 97 100 92
Wind_Direction_850mb
231 232 233 237 242 249 256 266 275 282 290 296 299 303 304 302 301 299 293 290 287 287
231 229 231 235 241 247 255 265 274 283 291 295 300 302 302 302 303 298 295 293 290 288
228 228 229 232 239 245 256 267 277 285 292 297 300 302 302 304 303 298 296 292 291 288
226 224 226 230 234 242 255 268 279 286 292 298 302 303 305 307 303 300 298 296 294 291
223 222 224 227 232 242 257 268 277 285 293 300 303 307 309 307 305 302 300 300 295 293
219 219 221 225 232 243 255 266 274 285 296 302 306 306 308 307 306 304 303 301 297 297
217 217 218 222 231 244 254 264 276 291 301 304 305 308 311 310 308 307 305 303 299 298
215 213 214 219 230 241 252 263 279 296 300 302 305 309 312 310 310 309 307 304 302 297
211 210 213 219 229 239 250 264 284 294 300 301 302 308 311 314 312 309 307 309 305 299
209 209 213 219 228 237 249 266 283 293 297 298 303 308 313 314 310 309 310 312 313 310
208 208 215 221 228 237 250 266 280 291 295 298 307 309 312 311 313 318 323 318 312 304
208 209 214 220 228 237 252 266 283 291 295 299 305 308 312 320 325 325 322 316 311 308
206 211 217 220 228 240 253 268 284 291 297 302 309 312 324 327 326 324 319 320 315 310
204 208 214 221 230 240 252 269 284 290 300 303 311 322 328 327 326 321 320 315 317 315